| time (UTC) | temp F | wind direction | speed knots | gust knots | rain 1hr in | rain 24hr in | rain mn in | humidity % | barometer mb |
| 20260506235539 | 56 | 348 | 3.5 | 7.0 | 0.00 | 0.61 | 0.00 | 83 | 1011.4 |
| 20260506235037 | 56 | 21 | 3.5 | 7.0 | 0.00 | 0.61 | 0.00 | 83 | 1011.3 |
| 20260506234545 | 56 | 351 | 2.6 | 7.0 | 0.00 | 0.61 | 0.00 | 83 | 1011.4 |
| 20260506234040 | 56 | 342 | 2.6 | 4.3 | 0.00 | 0.61 | 0.00 | 83 | 1011.4 |
| 20260506233540 | 56 | 338 | 2.6 | 4.3 | 0.00 | 0.61 | 0.00 | 83 | 1011.3 |
| 20260506233056 | 56 | 331 | 1.7 | 4.3 | 0.00 | 0.61 | 0.00 | 82 | 1011.3 |
| 20260506232537 | 56 | 352 | 1.7 | 7.0 | 0.00 | 0.61 | 0.00 | 83 | 1011.2 |
| 20260506232035 | 56 | 347 | 2.6 | 7.0 | 0.00 | 0.61 | 0.00 | 82 | 1011.1 |
| 20260506231546 | 56 | 352 | 3.5 | 7.0 | 0.00 | 0.61 | 0.00 | 82 | 1011.0 |
| 20260506231035 | 56 | 5 | 2.6 | 6.1 | 0.00 | 0.61 | 0.00 | 82 | 1010.9 |
| 20260506230534 | 56 | 352 | 1.7 | 5.2 | 0.00 | 0.61 | 0.00 | 82 | 1010.9 |
| 20260506230051 | 56 | 5 | 1.7 | 5.2 | 0.00 | 0.61 | 0.00 | 82 | 1010.9 |
| 20260506225541 | 56 | 343 | 2.6 | 5.2 | 0.00 | 0.62 | 0.00 | 81 | 1010.8 |
| 20260506225038 | 57 | 9 | 2.6 | 5.2 | 0.00 | 0.62 | 0.00 | 81 | 1010.8 |
| 20260506224553 | 57 | 329 | 2.6 | 7.0 | 0.00 | 0.62 | 0.00 | 81 | 1010.9 |
| 20260506224039 | 57 | 352 | 2.6 | 7.0 | 0.00 | 0.62 | 0.00 | 81 | 1010.9 |
| 20260506223537 | 57 | 339 | 2.6 | 4.3 | 0.00 | 0.62 | 0.00 | 80 | 1010.8 |
| 20260506223045 | 57 | 323 | 1.7 | 6.1 | 0.00 | 0.62 | 0.00 | 80 | 1010.9 |
| 20260506222538 | 57 | 317 | 1.7 | 6.1 | 0.00 | 0.62 | 0.00 | 80 | 1011.0 |
| 20260506222038 | 57 | 300 | 1.7 | 5.2 | 0.00 | 0.62 | 0.00 | 80 | 1011.0 |
| 20260506221549 | 57 | 281 | 1.7 | 3.5 | 0.00 | 0.62 | 0.00 | 80 | 1011.0 |
| 20260506221037 | 57 | 259 | 1.7 | 2.6 | 0.00 | 0.62 | 0.00 | 80 | 1011.0 |
| 20260506220537 | 57 | 298 | 0.9 | 3.5 | 0.00 | 0.62 | 0.00 | 79 | 1011.0 |
| 20260506220049 | 57 | 56 | 0.0 | 3.5 | 0.00 | 0.62 | 0.00 | 79 | 1010.9 |
| 20260506215537 | 57 | 0 | 0.9 | 5.2 | 0.00 | 0.62 | 0.62 | 79 | 1010.9 |
| 20260506215039 | 57 | 360 | 2.6 | 5.2 | 0.00 | 0.62 | 0.62 | 79 | 1010.8 |
| 20260506214600 | 58 | 346 | 1.7 | 5.2 | 0.00 | 0.62 | 0.62 | 78 | 1010.7 |
| 20260506214036 | 58 | 14 | 1.7 | 7.8 | 0.00 | 0.62 | 0.62 | 78 | 1010.8 |
| 20260506213541 | 58 | 67 | 2.6 | 7.8 | 0.00 | 0.62 | 0.62 | 78 | 1010.7 |
| 20260506213049 | 58 | 20 | 3.5 | 7.8 | 0.00 | 0.62 | 0.62 | 77 | 1010.7 |
| 20260506212538 | 58 | 42 | 2.6 | 7.0 | 0.00 | 0.62 | 0.62 | 77 | 1010.7 |
| 20260506212038 | 58 | 26 | 2.6 | 7.8 | 0.00 | 0.62 | 0.62 | 77 | 1010.7 |
| 20260506211547 | 58 | 12 | 3.5 | 8.7 | 0.00 | 0.62 | 0.62 | 77 | 1010.7 |
| 20260506211038 | 58 | 360 | 4.3 | 8.7 | 0.00 | 0.62 | 0.62 | 77 | 1010.8 |
| 20260506210537 | 58 | 338 | 4.3 | 8.7 | 0.00 | 0.62 | 0.62 | 77 | 1010.7 |
| 20260506210050 | 58 | 48 | 2.6 | 7.0 | 0.00 | 0.62 | 0.62 | 78 | 1010.7 |
| 20260506205538 | 58 | 337 | 2.6 | 7.0 | 0.00 | 0.66 | 0.62 | 78 | 1010.7 |
| 20260506205037 | 58 | 352 | 3.5 | 7.8 | 0.00 | 0.66 | 0.62 | 78 | 1010.7 |
| 20260506204551 | 58 | 360 | 3.5 | 8.7 | 0.00 | 0.66 | 0.62 | 78 | 1010.7 |
| 20260506204037 | 58 | 344 | 3.5 | 8.7 | 0.00 | 0.66 | 0.62 | 78 | 1010.7 |
| 20260506203540 | 58 | 337 | 4.3 | 10.4 | 0.00 | 0.66 | 0.62 | 78 | 1010.6 |
| 20260506203048 | 58 | 11 | 5.2 | 10.4 | 0.00 | 0.66 | 0.62 | 78 | 1010.7 |
| 20260506202537 | 58 | 13 | 5.2 | 8.7 | 0.00 | 0.66 | 0.62 | 78 | 1010.4 |
| 20260506202036 | 57 | 352 | 5.2 | 11.3 | 0.00 | 0.66 | 0.62 | 79 | 1010.4 |
| 20260506201548 | 57 | 360 | 6.1 | 11.3 | 0.00 | 0.66 | 0.62 | 79 | 1010.4 |
| 20260506201036 | 57 | 11 | 6.1 | 11.3 | 0.00 | 0.66 | 0.62 | 80 | 1010.4 |
| 20260506200535 | 57 | 43 | 6.1 | 12.2 | 0.00 | 0.66 | 0.62 | 81 | 1010.3 |
| 20260506200100 | 57 | 26 | 7.0 | 12.2 | 0.00 | 0.66 | 0.62 | 82 | 1010.4 |
| 20260506195536 | 57 | 327 | 6.1 | 10.4 | 0.00 | 0.67 | 0.62 | 82 | 1010.4 |
| 20260506195038 | 57 | 352 | 5.2 | 10.4 | 0.00 | 0.67 | 0.62 | 82 | 1010.3 |
| 20260506194551 | 57 | 317 | 6.1 | 10.4 | 0.00 | 0.67 | 0.62 | 82 | 1010.4 |
| 20260506194039 | 58 | 345 | 7.0 | 10.4 | 0.00 | 0.67 | 0.62 | 82 | 1010.3 |
| 20260506193535 | 58 | 330 | 4.3 | 9.6 | 0.00 | 0.67 | 0.62 | 81 | 1010.0 |
| 20260506193054 | 58 | 328 | 2.6 | 7.8 | 0.00 | 0.67 | 0.62 | 80 | 1009.9 |
| 20260506192537 | 58 | 323 | 4.3 | 7.8 | 0.00 | 0.67 | 0.62 | 80 | 1010.0 |
| 20260506192041 | 58 | 333 | 2.6 | 7.0 | 0.00 | 0.67 | 0.62 | 79 | 1009.9 |
| 20260506191554 | 58 | 5 | 2.6 | 7.0 | 0.00 | 0.67 | 0.62 | 79 | 1009.8 |
| 20260506191038 | 58 | 348 | 3.5 | 7.0 | 0.00 | 0.67 | 0.62 | 79 | 1009.6 |
| 20260506190538 | 58 | 25 | 2.6 | 6.1 | 0.00 | 0.67 | 0.62 | 79 | 1009.6 |
| 20260506190053 | 58 | 30 | 2.6 | 6.1 | 0.00 | 0.67 | 0.62 | 79 | 1009.6 |
| 20260506185537 | 58 | 5 | 3.5 | 5.2 | 0.00 | 0.67 | 0.62 | 79 | 1009.5 |
| 20260506185035 | 58 | 338 | 2.6 | 7.8 | 0.00 | 0.67 | 0.62 | 78 | 1009.4 |
| 20260506184549 | 58 | 5 | 2.6 | 7.8 | 0.00 | 0.67 | 0.62 | 78 | 1009.4 |
| 20260506184036 | 58 | 13 | 3.5 | 7.8 | 0.00 | 0.67 | 0.62 | 78 | 1009.2 |
| 20260506183538 | 58 | 352 | 3.5 | 8.7 | 0.00 | 0.67 | 0.62 | 77 | 1009.1 |
| 20260506183052 | 59 | 352 | 4.3 | 13.0 | 0.00 | 0.67 | 0.62 | 77 | 1009.2 |
| 20260506182537 | 59 | 21 | 5.2 | 13.0 | 0.00 | 0.67 | 0.62 | 77 | 1009.1 |
| 20260506182037 | 59 | 44 | 7.0 | 13.0 | 0.00 | 0.67 | 0.62 | 76 | 1008.9 |
| 20260506181556 | 59 | 35 | 3.5 | 9.6 | 0.00 | 0.67 | 0.62 | 76 | 1008.8 |
| 20260506181038 | 60 | 35 | 4.3 | 9.6 | 0.00 | 0.67 | 0.62 | 76 | 1008.8 |
| 20260506180538 | 60 | 40 | 5.2 | 11.3 | 0.00 | 0.67 | 0.62 | 75 | 1008.8 |
| 20260506180111 | 60 | 32 | 4.3 | 11.3 | 0.00 | 0.67 | 0.62 | 75 | 1008.7 |
| 20260506175538 | 60 | 19 | 6.1 | 11.3 | 0.00 | 0.67 | 0.62 | 75 | 1008.6 |
| 20260506175037 | 60 | 5 | 5.2 | 10.4 | 0.00 | 0.67 | 0.62 | 75 | 1008.6 |
| 20260506174549 | 61 | 14 | 4.3 | 13.0 | 0.00 | 0.67 | 0.62 | 75 | 1008.6 |
| 20260506174037 | 61 | 5 | 7.0 | 13.0 | 0.00 | 0.67 | 0.62 | 74 | 1008.5 |
| 20260506173537 | 61 | 10 | 8.7 | 14.8 | 0.00 | 0.67 | 0.62 | 74 | 1008.4 |
| 20260506173106 | 61 | 352 | 7.8 | 14.8 | 0.00 | 0.67 | 0.62 | 74 | 1008.3 |
| 20260506172709 | 62 | 9 | 7.0 | 14.8 | 0.00 | 0.67 | 0.62 | 73 | 1008.2 |
| 20260506172037 | 62 | 360 | 9.6 | 14.8 | 0.00 | 0.67 | 0.62 | 72 | 1008.1 |
| 20260506171547 | 64 | 337 | 9.6 | 14.8 | 0.00 | 0.67 | 0.62 | 70 | 1008.0 |
| 20260506171037 | 65 | 22 | 7.8 | 14.8 | 0.00 | 0.67 | 0.62 | 68 | 1007.8 |
| 20260506170539 | 66 | 5 | 7.8 | 13.9 | 0.00 | 0.67 | 0.62 | 66 | 1007.6 |
| 20260506170050 | 67 | 320 | 6.1 | 12.2 | 0.00 | 0.67 | 0.62 | 62 | 1007.5 |
| 20260506165537 | 69 | 341 | 8.7 | 12.2 | 0.00 | 0.67 | 0.62 | 59 | 1007.3 |
| 20260506165038 | 70 | 236 | 3.5 | 11.3 | 0.00 | 0.67 | 0.62 | 49 | 1007.1 |
| 20260506164549 | 70 | 173 | 4.3 | 15.6 | 0.00 | 0.67 | 0.62 | 49 | 1006.9 |
| 20260506164037 | 70 | 209 | 7.8 | 15.6 | 0.00 | 0.67 | 0.62 | 49 | 1006.7 |
| 20260506163537 | 70 | 178 | 6.1 | 13.0 | 0.00 | 0.67 | 0.62 | 51 | 1006.7 |
| 20260506163055 | 70 | 171 | 6.1 | 13.9 | 0.00 | 0.67 | 0.62 | 51 | 1006.6 |
| 20260506162537 | 70 | 194 | 6.1 | 13.9 | 0.00 | 0.67 | 0.62 | 52 | 1006.6 |
| 20260506162039 | 70 | 167 | 5.2 | 13.9 | 0.00 | 0.67 | 0.62 | 49 | 1006.5 |
| 20260506161554 | 70 | 228 | 5.2 | 13.9 | 0.00 | 0.67 | 0.62 | 56 | 1006.5 |
| 20260506161037 | 70 | 157 | 7.0 | 13.9 | 0.00 | 0.67 | 0.62 | 57 | 1006.4 |
| 20260506160537 | 70 | 163 | 6.1 | 13.9 | 0.00 | 0.67 | 0.62 | 64 | 1006.4 |
| 20260506160049 | 70 | 140 | 7.8 | 14.8 | 0.00 | 0.67 | 0.62 | 73 | 1006.4 |
| 20260506155541 | 69 | 148 | 7.0 | 14.8 | 0.00 | 0.67 | 0.62 | 74 | 1006.4 |
| 20260506155035 | 69 | 150 | 10.4 | 14.8 | 0.00 | 0.67 | 0.62 | 74 | 1006.5 |
| 20260506154552 | 69 | 132 | 7.0 | 17.4 | 0.00 | 0.67 | 0.62 | 76 | 1006.5 |
| 20260506154038 | 69 | 120 | 8.7 | 17.4 | 0.00 | 0.67 | 0.62 | 76 | 1006.6 |
| 20260506153538 | 69 | 149 | 9.6 | 17.4 | 0.00 | 0.67 | 0.62 | 71 | 1006.6 |
| 20260506153046 | 69 | 140 | 9.6 | 16.5 | 0.00 | 0.67 | 0.62 | 77 | 1006.7 |
| 20260506152538 | 69 | 112 | 7.8 | 13.0 | 0.00 | 0.67 | 0.62 | 78 | 1006.7 |
| 20260506152041 | 69 | 106 | 7.8 | 15.6 | 0.00 | 0.67 | 0.62 | 77 | 1006.7 |
| 20260506151548 | 69 | 89 | 9.6 | 16.5 | 0.00 | 0.67 | 0.62 | 77 | 1006.8 |
| 20260506151037 | 68 | 121 | 8.7 | 16.5 | 0.00 | 0.67 | 0.62 | 77 | 1006.9 |
| 20260506150537 | 68 | 131 | 8.7 | 14.8 | 0.00 | 0.67 | 0.62 | 79 | 1006.9 |
| 20260506150056 | 68 | 126 | 8.7 | 14.8 | 0.00 | 0.67 | 0.62 | 78 | 1007.0 |
| 20260506145539 | 68 | 126 | 7.8 | 14.8 | 0.00 | 0.67 | 0.62 | 79 | 1007.1 |
| 20260506145037 | 68 | 95 | 7.8 | 14.8 | 0.00 | 0.67 | 0.62 | 74 | 1007.3 |
| 20260506144601 | 68 | 92 | 7.0 | 13.0 | 0.00 | 0.67 | 0.62 | 80 | 1007.3 |
| 20260506144037 | 68 | 132 | 8.7 | 14.8 | 0.00 | 0.67 | 0.62 | 81 | 1007.3 |
| 20260506143537 | 67 | 124 | 9.6 | 16.5 | 0.00 | 0.67 | 0.62 | 79 | 1007.3 |
| 20260506143047 | 67 | 127 | 11.3 | 16.5 | 0.00 | 0.67 | 0.62 | 79 | 1007.4 |
| 20260506142539 | 67 | 129 | 9.6 | 16.5 | 0.00 | 0.67 | 0.62 | 80 | 1007.4 |
| 20260506142037 | 67 | 101 | 8.7 | 15.6 | 0.00 | 0.67 | 0.62 | 80 | 1007.4 |
| 20260506141545 | 67 | 139 | 10.4 | 19.1 | 0.00 | 0.67 | 0.62 | 80 | 1007.5 |
| 20260506141037 | 67 | 118 | 11.3 | 19.1 | 0.00 | 0.67 | 0.62 | 80 | 1007.5 |
| 20260506140538 | 67 | 152 | 11.3 | 18.2 | 0.00 | 0.67 | 0.62 | 80 | 1007.7 |
| 20260506140051 | 67 | 136 | 11.3 | 16.5 | 0.00 | 0.67 | 0.62 | 80 | 1007.8 |
| 20260506135537 | 67 | 130 | 9.6 | 14.8 | 0.00 | 0.67 | 0.62 | 81 | 1007.9 |
| 20260506135037 | 67 | 137 | 10.4 | 16.5 | 0.00 | 0.67 | 0.62 | 79 | 1007.9 |
| 20260506134549 | 67 | 74 | 10.4 | 16.5 | 0.00 | 0.67 | 0.62 | 80 | 1007.9 |
| 20260506134037 | 67 | 128 | 8.7 | 14.8 | 0.00 | 0.67 | 0.62 | 76 | 1008.0 |
| 20260506133538 | 66 | 136 | 7.0 | 14.8 | 0.00 | 0.67 | 0.62 | 83 | 1008.2 |
| 20260506133051 | 66 | 136 | 8.7 | 14.8 | 0.00 | 0.67 | 0.62 | 82 | 1008.3 |
| 20260506132537 | 66 | 111 | 8.7 | 14.8 | 0.00 | 0.67 | 0.62 | 81 | 1008.3 |
| 20260506132037 | 66 | 113 | 7.0 | 12.2 | 0.00 | 0.67 | 0.62 | 83 | 1008.4 |
| 20260506131549 | 66 | 98 | 7.8 | 15.6 | 0.00 | 0.67 | 0.62 | 82 | 1008.4 |
| 20260506131037 | 66 | 147 | 9.6 | 15.6 | 0.00 | 0.67 | 0.62 | 83 | 1008.3 |
| 20260506130537 | 65 | 125 | 9.6 | 17.4 | 0.00 | 0.67 | 0.62 | 83 | 1008.3 |
| 20260506130052 | 65 | 137 | 11.3 | 17.4 | 0.00 | 0.67 | 0.62 | 82 | 1008.5 |
| 20260506125537 | 65 | 104 | 8.7 | 13.9 | 0.00 | 0.67 | 0.62 | 83 | 1008.5 |
| 20260506125037 | 65 | 121 | 7.8 | 14.8 | 0.00 | 0.67 | 0.62 | 83 | 1008.5 |
| 20260506124553 | 65 | 73 | 7.8 | 16.5 | 0.00 | 0.67 | 0.62 | 83 | 1008.5 |
| 20260506124041 | 65 | 86 | 7.0 | 16.5 | 0.00 | 0.67 | 0.62 | 85 | 1008.5 |
| 20260506123538 | 65 | 103 | 8.7 | 16.5 | 0.00 | 0.67 | 0.62 | 84 | 1008.5 |
| 20260506123049 | 65 | 38 | 9.6 | 14.8 | 0.00 | 0.67 | 0.62 | 83 | 1008.6 |
| 20260506122538 | 65 | 105 | 7.0 | 13.0 | 0.00 | 0.67 | 0.62 | 84 | 1008.7 |
| 20260506122039 | 64 | 168 | 7.8 | 13.9 | 0.00 | 0.67 | 0.62 | 84 | 1008.7 |
| 20260506121548 | 64 | 112 | 7.8 | 13.9 | 0.00 | 0.67 | 0.62 | 84 | 1008.8 |
| 20260506121037 | 64 | 109 | 8.7 | 13.9 | 0.00 | 0.67 | 0.62 | 85 | 1008.8 |
| 20260506120538 | 64 | 88 | 7.8 | 14.8 | 0.00 | 0.67 | 0.62 | 85 | 1008.8 |
| 20260506120050 | 64 | 93 | 8.7 | 14.8 | 0.00 | 0.67 | 0.62 | 86 | 1008.8 |
| 20260506115541 | 64 | 127 | 7.8 | 14.8 | 0.00 | 0.67 | 0.62 | 87 | 1008.8 |
| 20260506115038 | 63 | 120 | 7.8 | 14.8 | 0.00 | 0.67 | 0.62 | 87 | 1008.8 |
| 20260506114547 | 63 | 102 | 9.6 | 14.8 | 0.00 | 0.67 | 0.62 | 89 | 1009.0 |
| 20260506114038 | 63 | 126 | 7.8 | 17.4 | 0.00 | 0.67 | 0.62 | 89 | 1008.9 |
| 20260506113537 | 62 | 130 | 8.7 | 17.4 | 0.00 | 0.67 | 0.62 | 88 | 1008.9 |
| 20260506113045 | 62 | 112 | 7.8 | 13.9 | 0.00 | 0.67 | 0.62 | 89 | 1009.0 |
| 20260506112538 | 62 | 135 | 8.7 | 15.6 | 0.00 | 0.67 | 0.62 | 89 | 1009.0 |
| 20260506112039 | 62 | 145 | 10.4 | 15.6 | 0.00 | 0.67 | 0.62 | 90 | 1008.9 |
| 20260506111547 | 62 | 110 | 8.7 | 15.6 | 0.00 | 0.67 | 0.62 | 91 | 1009.0 |
| 20260506111037 | 61 | 123 | 8.7 | 13.0 | 0.00 | 0.67 | 0.62 | 90 | 1009.0 |
| 20260506110538 | 61 | 147 | 8.7 | 14.8 | 0.00 | 0.67 | 0.62 | 90 | 1009.1 |
| 20260506110046 | 61 | 147 | 7.8 | 15.6 | 0.00 | 0.67 | 0.62 | 91 | 1009.1 |
| 20260506105538 | 61 | 138 | 7.0 | 17.4 | 0.00 | 0.67 | 0.62 | 91 | 1009.2 |
| 20260506105041 | 61 | 134 | 11.3 | 17.4 | 0.00 | 0.67 | 0.62 | 91 | 1009.2 |
| 20260506104555 | 61 | 129 | 9.6 | 15.6 | 0.00 | 0.67 | 0.62 | 93 | 1009.3 |
| 20260506104037 | 60 | 84 | 8.7 | 14.8 | 0.00 | 0.67 | 0.62 | 93 | 1009.2 |
| 20260506103537 | 60 | 169 | 7.0 | 13.0 | 0.00 | 0.67 | 0.62 | 94 | 1009.2 |
| 20260506103046 | 60 | 102 | 7.8 | 14.8 | 0.03 | 0.67 | 0.62 | 94 | 1009.3 |
| 20260506102540 | 59 | 82 | 7.8 | 14.8 | 0.10 | 0.67 | 0.62 | 93 | 1009.3 |
| 20260506102036 | 59 | 116 | 7.8 | 15.6 | 0.15 | 0.67 | 0.62 | 93 | 1009.4 |
| 20260506101548 | 59 | 82 | 8.7 | 20.0 | 0.17 | 0.67 | 0.62 | 94 | 1009.3 |
| 20260506101037 | 59 | 144 | 10.4 | 20.0 | 0.18 | 0.67 | 0.62 | 94 | 1009.4 |
| 20260506100537 | 59 | 85 | 10.4 | 18.2 | 0.22 | 0.67 | 0.62 | 95 | 1009.5 |
| 20260506100047 | 59 | 76 | 10.4 | 18.2 | 0.26 | 0.67 | 0.62 | 96 | 1009.3 |
| 20260506095538 | 58 | 102 | 8.7 | 18.2 | 0.30 | 0.67 | 0.62 | 96 | 1009.1 |
| 20260506095040 | 58 | 105 | 8.7 | 15.6 | 0.29 | 0.66 | 0.61 | 96 | 1009.1 |
| 20260506094600 | 58 | 59 | 6.1 | 22.6 | 0.30 | 0.66 | 0.61 | 96 | 1009.1 |
| 20260506094037 | 57 | 126 | 13.0 | 22.6 | 0.31 | 0.66 | 0.61 | 95 | 1009.1 |
| 20260506093537 | 58 | 117 | 8.7 | 14.8 | 0.31 | 0.66 | 0.60 | 96 | 1009.1 |
| 20260506093047 | 57 | 72 | 8.7 | 14.8 | 0.29 | 0.63 | 0.58 | 96 | 1009.4 |
| 20260506092537 | 57 | 105 | 9.6 | 14.8 | 0.22 | 0.56 | 0.51 | 96 | 1009.4 |
| 20260506092037 | 57 | 113 | 7.0 | 11.3 | 0.18 | 0.51 | 0.46 | 96 | 1009.5 |
| 20260506091548 | 57 | 98 | 7.0 | 11.3 | 0.16 | 0.50 | 0.44 | 95 | 1009.6 |
| 20260506091037 | 57 | 143 | 3.5 | 7.8 | 0.16 | 0.49 | 0.44 | 95 | 1009.8 |
| 20260506090538 | 57 | 119 | 0.9 | 5.2 | 0.14 | 0.44 | 0.39 | 95 | 1010.0 |
| 20260506090047 | 57 | 234 | 1.7 | 5.2 | 0.10 | 0.40 | 0.35 | 95 | 1010.2 |
| 20260506085537 | 57 | 227 | 0.9 | 9.6 | 0.06 | 0.40 | 0.31 | 95 | 1010.0 |
| 20260506085039 | 57 | 58 | 4.3 | 10.4 | 0.06 | 0.40 | 0.31 | 95 | 1009.6 |
| 20260506084550 | 57 | 63 | 4.3 | 11.3 | 0.05 | 0.40 | 0.30 | 95 | 1009.4 |
| 20260506084038 | 57 | 112 | 6.1 | 13.9 | 0.04 | 0.39 | 0.29 | 95 | 1009.2 |
| 20260506083538 | 57 | 121 | 7.8 | 14.8 | 0.03 | 0.38 | 0.29 | 95 | 1009.2 |
| 20260506083057 | 57 | 142 | 8.7 | 14.8 | 0.03 | 0.38 | 0.29 | 96 | 1009.2 |
| 20260506082537 | 57 | 109 | 7.8 | 14.8 | 0.03 | 0.37 | 0.28 | 96 | 1009.3 |
| 20260506082037 | 57 | 100 | 8.7 | 16.5 | 0.03 | 0.37 | 0.28 | 96 | 1009.2 |
| 20260506081547 | 57 | 78 | 7.8 | 16.5 | 0.03 | 0.37 | 0.28 | 96 | 1009.0 |
| 20260506081038 | 57 | 82 | 6.1 | 12.2 | 0.02 | 0.37 | 0.27 | 96 | 1009.3 |
| 20260506080537 | 57 | 111 | 7.0 | 13.9 | 0.00 | 0.34 | 0.25 | 96 | 1009.5 |
| 20260506080106 | 57 | 106 | 7.0 | 17.4 | 0.00 | 0.34 | 0.25 | 95 | 1009.6 |
| 20260506073103 | 56 | 107 | 8.7 | 15.6 | 0.00 | 0.40 | 0.25 | 96 | 1009.4 |
| 20260506072541 | 56 | 120 | 8.7 | 15.6 | 0.00 | 0.40 | 0.25 | 96 | 1009.4 |
| 20260506072036 | 56 | 137 | 8.7 | 15.6 | 0.00 | 0.40 | 0.25 | 96 | 1009.4 |
| 20260506071553 | 56 | 109 | 9.6 | 15.6 | 0.01 | 0.40 | 0.25 | 96 | 1009.4 |
| 20260506071037 | 56 | 113 | 7.0 | 12.2 | 0.01 | 0.40 | 0.25 | 96 | 1009.3 |
| 20260506070537 | 56 | 63 | 5.2 | 12.2 | 0.01 | 0.40 | 0.25 | 96 | 1009.3 |
| 20260506062036 | 56 | 117 | 6.1 | 11.3 | 0.00 | 0.41 | 0.24 | 96 | 1009.9 |
| 20260506061545 | 56 | 135 | 7.0 | 11.3 | 0.00 | 0.40 | 0.23 | 96 | 1009.8 |
| 20260506061038 | 56 | 134 | 5.2 | 10.4 | 0.00 | 0.40 | 0.23 | 96 | 1009.9 |
| 20260506060537 | 55 | 144 | 5.2 | 10.4 | 0.00 | 0.40 | 0.23 | 96 | 1010.0 |
| 20260506051036 | 55 | 133 | 3.5 | 8.7 | 0.08 | 0.40 | 0.23 | 96 | 1009.8 |
| 20260506050537 | 55 | 104 | 3.5 | 7.8 | 0.11 | 0.40 | 0.23 | 96 | 1009.8 |
| 20260506045037 | 55 | 103 | 2.6 | 6.1 | 0.17 | 0.40 | 0.23 | 96 | 1010.1 |
| 20260506044551 | 55 | 79 | 1.7 | 4.3 | 0.17 | 0.40 | 0.22 | 95 | 1010.4 |
| 20260506044038 | 55 | 126 | 1.7 | 4.3 | 0.18 | 0.40 | 0.22 | 95 | 1010.7 |
| 20260506043537 | 55 | 176 | 0.9 | 4.3 | 0.19 | 0.40 | 0.22 | 95 | 1010.6 |
| 20260506043050 | 55 | 239 | 0.9 | 8.7 | 0.19 | 0.39 | 0.22 | 96 | 1010.2 |
| 20260506042538 | 55 | 119 | 3.5 | 8.7 | 0.17 | 0.37 | 0.19 | 96 | 1009.9 |
| 20260506042036 | 55 | 121 | 4.3 | 7.8 | 0.16 | 0.35 | 0.18 | 95 | 1009.6 |
| 20260506041554 | 55 | 117 | 3.5 | 7.8 | 0.16 | 0.34 | 0.17 | 95 | 1009.8 |
| 20260506041037 | 56 | 90 | 3.5 | 7.0 | 0.14 | 0.32 | 0.14 | 95 | 1010.2 |
| 20260506040538 | 56 | 130 | 3.5 | 6.1 | 0.11 | 0.29 | 0.12 | 95 | 1010.6 |
| 20260506040052 | 55 | 140 | 1.7 | 3.5 | 0.09 | 0.27 | 0.10 | 95 | 1010.6 |
| 20260506035538 | 55 | 0 | 0.9 | 3.5 | 0.07 | 0.25 | 0.08 | 95 | 1010.7 |
| 20260506035038 | 55 | 155 | 0.9 | 6.1 | 0.05 | 0.23 | 0.06 | 95 | 1010.7 |
| 20260506034552 | 55 | 134 | 1.7 | 6.1 | 0.04 | 0.22 | 0.05 | 95 | 1010.5 |
| 20260506034038 | 55 | 124 | 3.5 | 7.0 | 0.03 | 0.21 | 0.03 | 95 | 1010.4 |
| 20260506033538 | 56 | 137 | 3.5 | 7.0 | 0.02 | 0.20 | 0.03 | 95 | 1010.4 |
| 20260506033120 | 56 | 142 | 4.3 | 7.0 | 0.01 | 0.19 | 0.02 | 95 | 1010.5 |
| 20260506032538 | 56 | 136 | 4.3 | 7.8 | 0.00 | 0.18 | 0.01 | 94 | 1010.6 |
| 20260506032035 | 56 | 112 | 3.5 | 7.8 | 0.00 | 0.18 | 0.01 | 94 | 1010.5 |
| 20260506031547 | 56 | 146 | 3.5 | 6.1 | 0.00 | 0.18 | 0.00 | 94 | 1010.7 |
| 20260506031040 | 56 | 153 | 0.9 | 3.5 | 0.00 | 0.18 | 0.00 | 94 | 1010.6 |
| 20260506030537 | 56 | 92 | 1.7 | 3.5 | 0.00 | 0.18 | 0.00 | 94 | 1010.6 |
| 20260506030058 | 56 | 44 | 0.9 | 4.3 | 0.00 | 0.18 | 0.00 | 94 | 1010.6 |
| 20260506025537 | 56 | 70 | 2.6 | 4.3 | 0.00 | 0.18 | 0.00 | 94 | 1010.6 |
| 20260506025037 | 56 | 153 | 1.7 | 5.2 | 0.00 | 0.18 | 0.00 | 94 | 1010.7 |
| 20260506024607 | 56 | 105 | 2.6 | 5.2 | 0.00 | 0.18 | 0.00 | 94 | 1010.7 |
| 20260506024038 | 56 | 119 | 1.7 | 4.3 | 0.00 | 0.18 | 0.00 | 94 | 1010.8 |
| 20260506023536 | 56 | 93 | 0.9 | 6.1 | 0.00 | 0.18 | 0.00 | 94 | 1010.9 |
| 20260506023100 | 56 | 144 | 0.9 | 6.1 | 0.00 | 0.18 | 0.00 | 94 | 1011.1 |
| 20260506022537 | 56 | 114 | 2.6 | 6.1 | 0.00 | 0.18 | 0.00 | 94 | 1011.2 |
| 20260506022038 | 56 | 135 | 2.6 | 6.1 | 0.00 | 0.18 | 0.00 | 94 | 1011.4 |
| 20260506021557 | 56 | 111 | 3.5 | 6.1 | 0.00 | 0.18 | 0.00 | 94 | 1011.3 |
| 20260506021038 | 56 | 102 | 2.6 | 7.8 | 0.00 | 0.18 | 0.00 | 94 | 1011.4 |
| 20260506020535 | 56 | 92 | 4.3 | 7.8 | 0.00 | 0.18 | 0.00 | 94 | 1011.3 |
| 20260506020044 | 56 | 101 | 4.3 | 7.8 | 0.00 | 0.18 | 0.00 | 94 | 1011.3 |
| 20260506015535 | 56 | 114 | 3.5 | 9.6 | 0.00 | 0.18 | 0.00 | 94 | 1011.4 |
| 20260506015035 | 56 | 136 | 3.5 | 9.6 | 0.00 | 0.18 | 0.00 | 94 | 1011.5 |
| 20260506014547 | 56 | 111 | 3.5 | 7.8 | 0.00 | 0.18 | 0.00 | 94 | 1011.6 |
| 20260506014036 | 56 | 136 | 4.3 | 7.8 | 0.00 | 0.18 | 0.00 | 93 | 1011.5 |
| 20260506013537 | 56 | 134 | 4.3 | 8.7 | 0.00 | 0.18 | 0.00 | 93 | 1011.6 |
| 20260506013048 | 56 | 136 | 5.2 | 8.7 | 0.00 | 0.18 | 0.00 | 93 | 1011.5 |
| 20260506012537 | 56 | 132 | 4.3 | 7.8 | 0.00 | 0.18 | 0.00 | 93 | 1011.4 |
| 20260506012036 | 56 | 120 | 3.5 | 7.0 | 0.00 | 0.18 | 0.00 | 93 | 1011.6 |
| 20260506011609 | 56 | 123 | 3.5 | 6.1 | 0.00 | 0.18 | 0.00 | 93 | 1011.7 |
| 20260506011038 | 56 | 132 | 1.7 | 6.1 | 0.00 | 0.18 | 0.00 | 93 | 1011.7 |
| 20260506010538 | 56 | 126 | 2.6 | 6.1 | 0.00 | 0.18 | 0.00 | 93 | 1011.5 |
| 20260506005536 | 56 | 85 | 0.9 | 7.8 | 0.00 | 0.18 | 0.00 | 93 | 1011.6 |
| 20260506005040 | 56 | 74 | 4.3 | 7.8 | 0.00 | 0.18 | 0.00 | 93 | 1011.4 |
| 20260506004546 | 56 | 93 | 2.6 | 7.0 | 0.00 | 0.18 | 0.00 | 93 | 1011.5 |
| 20260506004035 | 56 | 79 | 1.7 | 7.0 | 0.00 | 0.18 | 0.00 | 93 | 1011.7 |
| 20260506003535 | 56 | 94 | 2.6 | 7.0 | 0.00 | 0.18 | 0.00 | 93 | 1011.7 |
| 20260506003047 | 56 | 138 | 3.5 | 7.8 | 0.00 | 0.18 | 0.00 | 93 | 1011.8 |
| 20260506002537 | 56 | 149 | 2.6 | 7.8 | 0.00 | 0.18 | 0.00 | 93 | 1011.9 |
| 20260506002035 | 57 | 128 | 3.5 | 7.8 | 0.00 | 0.18 | 0.00 | 93 | 1012.0 |
| 20260506001551 | 57 | 118 | 2.6 | 7.8 | 0.00 | 0.18 | 0.00 | 93 | 1012.0 |
| 20260506001036 | 57 | 130 | 2.6 | 7.8 | 0.00 | 0.18 | 0.00 | 93 | 1012.0 |
| 20260506000535 | 57 | 140 | 4.3 | 7.8 | 0.00 | 0.18 | 0.00 | 93 | 1012.1 |
| 20260506000054 | 57 | 132 | 2.6 | 6.1 | 0.00 | 0.18 | 0.00 | 93 | 1012.1 |